[[[{"header":{"parameterUnit":"kt","parameterCategory":2,"dx":1,"dy":1,"la1":30.253999710083008,"la2":30.299108505249023,"lo1":-89.0895004272461,"lo2":-89.04439544677734,"nx":28,"ny":28,"refTime":"2022-09-17T21:00:00:Z","depth":0,"parameterNumber":1,"parameterNumberName":"U-component_of_WINDS"},"data":[2.1795,2.1778,2.1762,2.1734,2.1715,2.1693,2.1679,2.166,2.164,2.161,2.1589,2.157,2.1542,2.1512,2.1487,2.1478,2.1469,2.1474,2.1463,2.1455,2.1453,2.1451,2.1454,2.1473,2.1473,2.1474,2.1474,2.1474,2.1789,2.177,2.1751,2.1722,2.1705,2.169,2.1664,2.1651,2.1631,2.1606,2.1585,2.1557,2.1532,2.1501,2.1473,2.1463,2.1453,2.1456,2.1457,2.1452,2.1443,2.1447,2.1464,2.1464,2.1464,2.1464,2.1464,2.1464,2.1773,2.1764,2.1737,2.1716,2.1697,2.1676,2.1664,2.1641,2.1621,2.1593,2.1576,2.1553,2.1524,2.1482,2.1464,2.1443,2.1437,2.1435,2.1434,2.1433,2.1435,2.1435,2.1438,2.1438,2.1438,2.1438,2.1438,0,2.1756,2.1743,2.1725,2.1701,2.1684,2.1664,2.1642,2.1634,2.16,2.1585,2.1562,2.1545,2.1511,2.1486,2.1456,2.1437,2.1419,2.1415,2.1413,2.1421,2.1431,2.1424,2.141,2.1415,2.1415,2.1415,2.1415,2.1415,2.1738,2.1729,2.1694,2.1682,2.1667,2.1649,2.1635,2.1606,2.1592,2.156,2.1552,2.1527,2.1505,2.1469,2.1441,2.1415,2.1406,2.141,2.1402,2.1409,2.1405,2.1405,2.1403,2.1412,2.1412,2.1412,2.1413,0,2.1729,2.1703,2.1684,2.165,2.1641,2.1633,2.1602,2.1591,2.157,2.1551,2.1545,2.1512,2.1489,2.146,2.1428,2.1413,2.1396,2.1388,2.1405,2.1402,2.1401,2.1401,2.1408,2.1406,2.1388,2.1388,2.1388,0,2.1703,2.1692,2.1654,2.1645,2.1632,2.1604,2.1591,2.1572,2.1548,2.1534,2.1509,2.1495,2.1461,2.1443,2.1421,2.1402,2.1396,2.1384,2.1378,2.1386,2.1387,2.1377,2.1376,2.1367,2.1367,2.1367,2.1367,0,2.1691,2.1659,2.1644,2.1632,2.1594,2.1587,2.1571,2.1544,2.153,2.1508,2.1498,2.1474,2.146,2.144,2.1414,2.1409,2.139,2.1378,2.1377,2.1377,2.1374,2.1375,2.1387,2.1367,2.1367,2.1367,2.1367,0,2.1666,2.1645,2.1628,2.1595,2.1588,2.1578,2.1552,2.1537,2.1511,2.1497,2.1479,2.1459,2.1441,2.1432,2.1406,2.1408,2.1395,2.1382,2.1381,2.1377,2.1367,2.1378,2.1393,2.1394,2.1374,2.1374,2.1374,0,2.1658,2.1634,2.161,2.1594,2.1579,2.1552,2.154,2.1518,2.1499,2.1482,2.1461,2.1442,2.1429,2.1419,2.141,2.1387,2.1385,2.1387,2.136,2.1359,2.1367,2.1382,2.1391,2.1393,2.1374,2.1374,2.1374,0,2.1649,2.1605,2.1604,2.1589,2.1557,2.1544,2.1531,2.1507,2.1497,2.1475,2.1462,2.1435,2.1424,2.1408,2.139,2.1382,2.1385,2.1371,2.137,2.1374,2.1373,2.1381,2.1382,2.1374,2.1374,2.1374,2.1375,0,2.1615,2.16,2.1597,2.1567,2.1553,2.1542,2.1514,2.1503,2.1486,2.1467,2.1448,2.1423,2.1398,2.1391,2.1376,2.1368,2.1365,2.1353,2.1341,2.1352,2.1351,2.1351,2.1345,2.1344,2.1344,2.1343,0,0,2.1614,2.1593,2.1568,2.1554,2.1541,2.1515,2.1505,2.1489,2.1457,2.1448,2.1441,2.1401,2.1381,2.136,2.1361,2.1351,2.1347,2.1345,2.1347,2.1348,2.1348,2.1348,2.1348,2.1343,2.1342,2.1342,2.1342,0,2.1596,2.1578,2.157,2.1552,2.1526,2.1506,2.1504,2.1473,2.146,2.1442,2.142,2.1405,2.1375,2.1356,2.1342,2.1347,2.133,2.1341,2.1353,2.1344,2.1345,2.1346,2.1346,2.1347,2.1341,2.1341,2.1341,0,2.1581,2.1559,2.1553,2.1523,2.1505,2.1491,2.1472,2.1458,2.1446,2.1418,2.14,2.1383,2.1356,2.1341,2.1333,2.1327,2.1317,2.1316,2.1318,2.1316,2.1306,2.1307,2.1309,2.1292,2.1292,2.1292,0,0,2.1569,2.1556,2.1523,2.1517,2.1507,2.1479,2.1468,2.1452,2.1429,2.142,2.1397,2.1375,2.1356,2.1345,2.1326,2.1314,2.1306,2.1311,2.1313,2.1315,2.1315,2.1305,2.1307,2.1291,2.1291,2.1291,0,0,2.1563,2.1526,2.1514,2.1503,2.1483,2.145,2.1446,2.1431,2.1412,2.141,2.138,2.1373,2.1359,2.1343,2.1343,2.1321,2.131,2.131,2.1333,2.1335,2.1337,2.1341,2.132,0,0,0,0,0,2.1531,2.153,2.152,2.1514,2.1477,2.1455,2.145,2.1427,2.1419,2.1417,2.1395,2.1379,2.1336,2.1336,2.133,2.133,2.1289,2.1289,2.129,2.1316,2.1319,2.1322,0,0,0,0,0,0,2.1528,2.1521,2.152,2.1488,2.1479,2.1455,2.1437,2.1431,2.1419,2.1416,2.1384,2.1378,2.1357,2.1338,2.1333,2.1333,2.1322,2.1289,2.1289,2.129,2.1317,2.132,2.1322,0,0,0,0,0,2.1526,2.1521,2.1467,2.1487,2.148,2.1448,2.1437,2.1431,2.1422,2.1389,2.1383,2.1405,2.1357,2.1351,2.1335,2.1336,2.1325,2.1323,2.1289,2.1289,2.129,2.1318,0,0,0,0,0,0,2.1525,2.1515,2.1465,2.1462,2.1486,2.1449,2.1442,2.1432,2.1395,2.1389,2.1409,2.1407,2.1358,2.1353,2.1349,2.1338,2.1328,2.1326,2.1325,2.1289,2.129,2.129,0,0,0,0,0,0,2.1518,2.1512,2.1463,2.1463,2.146,2.145,2.1444,2.1427,2.1395,2.1417,2.1414,2.1408,2.1364,2.1354,2.1351,2.1324,2.133,2.1328,2.1327,2.1326,2.129,2.129,0,0,0,0,0,0,2.1515,2.151,2.1464,2.1461,2.1458,2.142,2.1434,2.1396,2.1396,2.1419,2.1395,2.1394,2.1366,2.1362,2.1352,2.1328,2.1325,2.133,2.1328,2.1328,2.1327,0,0,0,0,0,0,0,2.1513,2.155,2.1484,2.146,2.1457,2.1432,2.1431,2.143,2.1396,2.1395,2.1395,2.1395,2.134,2.1338,2.1336,2.133,0,0,2.133,2.1329,0,0,0,0,0,0,0,0,2.1551,2.155,2.1484,2.1484,2.1483,2.1431,2.1431,2.143,2.1396,2.1395,2.1395,2.1395,2.1339,2.1337,2.1336,0,0,0,0,0,0,0,0,0,0,0,0,0,0,0,2.1484,2.1484,0,2.1431,2.1431,2.143,2.1396,2.1395,2.1395,2.1395,2.1339,2.1337,2.1336,0,0,0,0,0,0,0,0,0,0,0,0,0,0,0,0,0,0,0,0,0,0,0,0,0,0,0,0,0,0,0,0,0,0,0,0,0,0,0,0,0,0,0,0,0,0,0,0,0,0,0,0,0,0,0,0,0,0,0,0,0,0,0,0,0,0,0,0,0]}],[{"header":{"parameterUnit":"kt","parameterCategory":2,"dx":1,"dy":1,"la1":30.253999710083008,"la2":30.299108505249023,"lo1":-89.0895004272461,"lo2":-89.04439544677734,"nx":28,"ny":28,"refTime":"2022-09-17T21:00:00:Z","depth":0,"parameterNumber":2,"parameterNumberName":"V-component_of_WINDS"},"data":[-1.9807,-1.9914,-1.9965,-2.0112,-2.0183,-2.0294,-2.035,-2.0429,-2.0506,-2.0646,-2.0736,-2.0802,-2.0902,-2.1025,-2.1128,-2.1156,-2.1196,-2.1196,-2.1229,-2.1181,-2.1178,-2.1175,-2.1152,-2.1203,-2.1203,-2.1271,-2.1271,-2.1272,-1.9768,-1.9838,-1.9931,-2.0055,-2.0136,-2.0167,-2.0271,-2.0337,-2.0435,-2.0531,-2.0623,-2.0752,-2.0861,-2.0964,-2.108,-2.1134,-2.1157,-2.1162,-2.1159,-2.1174,-2.1125,-2.11,-2.1141,-2.1141,-2.1141,-2.1141,-2.1141,-2.1141,-1.971,-1.9771,-1.9876,-1.9978,-2.0055,-2.0139,-2.0209,-2.0287,-2.038,-2.0504,-2.055,-2.0664,-2.0772,-2.0939,-2.1008,-2.1101,-2.1106,-2.1129,-2.1135,-2.1139,-2.1137,-2.1032,-2.1123,-2.1123,-2.1123,-2.1124,-2.1124,0,-1.9683,-1.9722,-1.9814,-1.9922,-1.9999,-2.0088,-2.018,-2.0224,-2.0328,-2.0401,-2.0512,-2.0585,-2.0732,-2.0844,-2.0965,-2.1034,-2.1078,-2.1088,-2.1104,-2.1083,-2.1048,-2.1068,-2.0985,-2.1085,-2.1085,-2.1085,-2.1085,-2.1085,-1.9629,-1.9695,-1.9831,-1.9888,-1.9951,-2.0044,-2.011,-2.0197,-2.0264,-2.0391,-2.0444,-2.0556,-2.0651,-2.0823,-2.0918,-2.1028,-2.1051,-2.1083,-2.1068,-2.1044,-2.1053,-2.1048,-2.1056,-2.1084,-2.1084,-2.1084,-2.1084,0,-1.9594,-1.9678,-1.9798,-1.9927,-1.9961,-2.0027,-2.0139,-2.0206,-2.0276,-2.0378,-2.0407,-2.0517,-2.0626,-2.0716,-2.086,-2.0904,-2.1018,-2.1037,-2.0981,-2.099,-2.1028,-2.1024,-2.1137,-2.1157,-2.1103,-2.1104,-2.1104,0,-1.9581,-1.9665,-1.9786,-1.9851,-1.9948,-2.0032,-2.0127,-2.0196,-2.0289,-2.037,-2.0432,-2.0508,-2.0611,-2.0701,-2.0766,-2.0876,-2.0903,-2.0943,-2.096,-2.0938,-2.0933,-2.0977,-2.0974,-2.0994,-2.0993,-2.0992,-2.0992,0,-1.9517,-1.968,-1.9786,-1.9837,-1.9984,-2.0033,-2.0097,-2.0202,-2.0267,-2.0366,-2.041,-2.0521,-2.0581,-2.0667,-2.0749,-2.0736,-2.0885,-2.0884,-2.0927,-2.0925,-2.0956,-2.0952,-2.1029,-2.0991,-2.0991,-2.0991,-2.099,0,-1.952,-1.9615,-1.9755,-1.9879,-1.9919,-1.9989,-2.0102,-2.0183,-2.029,-2.0335,-2.0414,-2.0467,-2.0569,-2.0561,-2.0704,-2.0663,-2.072,-2.0768,-2.0773,-2.0788,-2.0777,-2.0808,-2.0872,-2.0882,-2.0802,-2.08,-2.0799,0,-1.9423,-1.9587,-1.966,-1.9792,-1.988,-1.9943,-2.0024,-2.0116,-2.0182,-2.0269,-2.0343,-2.0442,-2.0455,-2.0499,-2.0558,-2.0639,-2.0693,-2.0635,-2.0763,-2.0766,-2.0732,-2.0791,-2.0778,-2.0848,-2.078,-2.0782,-2.0783,0,-1.9359,-1.9534,-1.9553,-1.9615,-1.9748,-1.9823,-1.9915,-2.003,-2.0084,-2.0181,-2.0262,-2.0403,-2.0419,-2.049,-2.0545,-2.0602,-2.0659,-2.0612,-2.0616,-2.0618,-2.0778,-2.0765,-2.0776,-2.0684,-2.0687,-2.0689,-2.0768,0,-1.9345,-1.9437,-1.9491,-1.9625,-1.9696,-1.9784,-1.9877,-1.994,-1.9984,-2.0052,-2.0173,-2.0274,-2.0393,-2.043,-2.0475,-2.0575,-2.0573,-2.0589,-2.0588,-2.0626,-2.0655,-2.0666,-2.0537,-2.0538,-2.0538,-2.0539,0,0,-1.9231,-1.9366,-1.9443,-1.9534,-1.9599,-1.9663,-1.9749,-1.982,-1.9963,-2.0008,-2.0008,-2.0221,-2.0303,-2.044,-2.0459,-2.0508,-2.0535,-2.0518,-2.0607,-2.0614,-2.0621,-2.065,-2.0661,-2.054,-2.054,-2.054,-2.054,0,-1.9245,-1.9322,-1.9405,-1.9481,-1.9597,-1.9665,-1.9684,-1.9811,-1.9859,-1.9977,-2.003,-2.0114,-2.0282,-2.0362,-2.0425,-2.0503,-2.054,-2.0533,-2.0543,-2.0608,-2.0615,-2.0621,-2.065,-2.0659,-2.0541,-2.0541,-2.0541,0,-1.9198,-1.929,-1.9339,-1.9489,-1.9566,-1.9655,-1.9677,-1.977,-1.9839,-1.9906,-2.0023,-2.0091,-2.0207,-2.0324,-2.038,-2.0382,-2.0539,-2.0506,-2.0506,-2.0515,-2.0582,-2.059,-2.0597,-2.0506,-2.0506,-2.0505,0,0,-1.9198,-1.9284,-1.941,-1.9498,-1.9543,-1.9644,-1.9701,-1.9751,-1.9851,-1.9891,-1.998,-2.0078,-2.0177,-2.024,-2.0338,-2.0453,-2.0485,-2.0498,-2.05,-2.0501,-2.0509,-2.0577,-2.0585,-2.0503,-2.0503,-2.0503,0,0,-1.9198,-1.9347,-1.9373,-1.9486,-1.9578,-1.971,-1.9762,-1.9798,-1.9895,-1.9895,-1.9987,-2.0017,-2.0128,-2.0194,-2.0156,-2.034,-2.0337,-2.0348,-2.0292,-2.0296,-2.0298,-2.028,-2.0194,0,0,0,0,0,-1.9259,-1.9328,-1.935,-1.9383,-1.9573,-1.9697,-1.9723,-1.9798,-1.9794,-1.9833,-1.9914,-1.9949,-2.0193,-2.0161,-2.0194,-2.0235,-2.0478,-2.0482,-2.0487,-2.0442,-2.0445,-2.0447,0,0,0,0,0,0,-1.9273,-1.9312,-1.9349,-1.9481,-1.9525,-1.9696,-1.9706,-1.9729,-1.9792,-1.9796,-1.9932,-1.9953,-2.0021,-2.015,-2.0178,-2.0216,-2.0185,-2.048,-2.0483,-2.0487,-2.0443,-2.0445,-2.0447,0,0,0,0,0,-1.9284,-1.9316,-1.96,-1.9481,-1.9519,-1.9636,-1.9704,-1.9723,-1.9773,-1.9898,-1.992,-1.9824,-2.002,-2.0049,-2.0167,-2.0201,-2.0166,-2.0176,-2.0482,-2.0485,-2.0488,-2.0444,0,0,0,0,0,0,-1.9292,-1.9335,-1.9609,-1.9624,-1.946,-1.9628,-1.9656,-1.9718,-1.9873,-1.9895,-1.9795,-1.9797,-2.002,-2.0043,-2.0065,-2.0192,-2.015,-2.0161,-2.0167,-2.0484,-2.0487,-2.0489,0,0,0,0,0,0,-1.9318,-1.9347,-1.9617,-1.9586,-1.9598,-1.962,-1.9645,-1.9757,-1.9874,-1.9761,-1.9767,-1.9794,-1.9988,-2.0039,-2.0056,-2.0228,-2.0138,-2.0148,-2.0155,-2.016,-2.0486,-2.0488,0,0,0,0,0,0,-1.9332,-1.9356,-1.9583,-1.9592,-1.9602,-1.977,-1.9721,-1.9912,-1.9844,-1.9753,-1.984,-1.9839,-1.9983,-2.0002,-2.005,-2.0213,-2.0224,-2.0139,-2.0146,-2.015,-2.0154,0,0,0,0,0,0,0,-1.9343,-1.916,-1.9523,-1.9596,-1.9605,-1.9757,-1.9761,-1.9765,-1.9844,-1.9842,-1.9841,-1.9839,-2.0082,-2.0092,-2.0104,-2.0202,0,0,-2.0138,-2.0143,0,0,0,0,0,0,0,0,-1.9152,-1.9158,-1.9524,-1.9527,-1.953,-1.9758,-1.9761,-1.9764,-1.9843,-1.9842,-1.9841,-1.984,-2.0085,-2.0093,-2.0102,0,0,0,0,0,0,0,0,0,0,0,0,0,0,0,-1.9524,-1.9526,0,-1.9758,-1.9761,-1.9764,-1.9843,-1.9842,-1.9841,-1.984,-2.0087,-2.0094,-2.0102,0,0,0,0,0,0,0,0,0,0,0,0,0,0,0,0,0,0,0,0,0,0,0,0,0,0,0,0,0,0,0,0,0,0,0,0,0,0,0,0,0,0,0,0,0,0,0,0,0,0,0,0,0,0,0,0,0,0,0,0,0,0,0,0,0,0,0,0,0]}]]]